Location: Antioch Baptist Church
(32.7160°N, 96.7483°W)
Time: 19:27:38
(UTC+00:00)

Cosmos 1862 - Pass Details

Date: 05 December 2023
Orbit: 514 x 533 km, 82.5° (Epoch: 21 February)

Event Time Altitude Azimuth Distance (km) Brightness Sun altitude
Rises 10:39:05 0° 134° (SE) 2,615 7.5 -32.0°
Reaches altitude 10° 12:15:18 10° 208° (SSW) 1,731 5.8 -12.3°
Maximum altitude 12:18:52 40° 279° (W) 770 3.6 -11.6°
Drops below altitude 10° 12:22:29 10° 350° (N) 1,746 5.6 -10.9°
Sets 12:24:44 0° 358° (N) 2,639 6.6 -10.4°
